Time,TemperatureF,DewpointF,PressureIn,WindDirection,WindDirectionDegrees,WindSpeedMPH,WindSpeedGustMPH,Humidity,HourlyPrecipIn,Conditions,Clouds,dailyrainin,SoftwareType,DateUTC
2013-07-25 00:05:00,69.6,68.4,29.91,NW,315,0.0,0.0,96,0.00,RA,,0.00,WeatherDisplay:10.37,2013-07-25 04:05:00,
2013-07-25 00:10:00,69.6,68.4,29.91,NW,315,0.0,0.0,96,0.00,CLR,,0.00,WeatherDisplay:10.37,2013-07-25 04:10:00,
2013-07-25 00:15:00,69.6,68.4,29.91,NW,315,0.0,0.0,96,0.00,CLR,,0.00,WeatherDisplay:10.37,2013-07-25 04:15:00,
2013-07-25 00:20:00,69.6,68.4,29.91,NW,315,0.0,0.0,96,0.00,CLR,,0.00,WeatherDisplay:10.37,2013-07-25 04:20:00,
2013-07-25 00:25:00,69.4,68.3,29.91,NW,315,0.0,0.0,96,0.00,CLR,,0.00,WeatherDisplay:10.37,2013-07-25 04:25:00,
2013-07-25 00:30:00,69.4,68.2,29.92,NW,315,0.0,0.0,96,0.00,CLR,,0.00,WeatherDisplay:10.37,2013-07-25 04:30:00,
2013-07-25 00:35:00,72.5,71.3,29.99,NW,309,0.0,0.0,96,0.00,CLR,,0.00,WeatherDisplay:10.37,2013-07-25 04:35:00,
2013-07-25 00:40:00,69.3,68.1,29.92,NW,312,0.0,0.0,96,0.00,CLR,,0.00,WeatherDisplay:10.37,2013-07-25 04:40:00,
2013-07-25 00:45:00,69.3,68.1,29.92,NW,315,0.0,0.0,96,0.00,CLR,,0.00,WeatherDisplay:10.37,2013-07-25 04:45:00,
2013-07-25 00:50:00,69.3,68.1,29.92,NW,315,0.0,0.0,96,0.00,CLR,,0.00,WeatherDisplay:10.37,2013-07-25 04:50:00,
2013-07-25 00:55:00,69.1,67.9,29.92,NW,315,0.0,0.0,96,0.00,CLR,,0.00,WeatherDisplay:10.37,2013-07-25 04:55:00,
2013-07-25 01:00:00,69.1,67.9,29.92,NW,315,0.0,0.0,96,0.00,CLR,,0.00,WeatherDisplay:10.37,2013-07-25 05:00:00,
2013-07-25 01:05:00,69.1,67.9,29.92,NW,315,0.0,0.0,96,0.00,CLR,,0.00,WeatherDisplay:10.37,2013-07-25 05:05:00,
2013-07-25 01:10:00,69.1,67.9,29.92,NW,315,0.0,0.0,96,0.00,RA,,0.01,WeatherDisplay:10.37,2013-07-25 05:10:00,
2013-07-25 01:15:00,69.1,67.9,29.92,NW,315,0.0,0.0,96,0.00,RA,,0.01,WeatherDisplay:10.37,2013-07-25 05:15:00,
2013-07-25 01:20:00,68.9,67.7,29.92,NW,315,0.0,0.0,96,0.00,CLR,,0.01,WeatherDisplay:10.37,2013-07-25 05:20:00,
2013-07-25 01:25:00,68.9,67.7,29.92,NW,315,0.0,0.0,96,0.00,CLR,,0.01,WeatherDisplay:10.37,2013-07-25 05:25:00,
2013-07-25 01:30:00,68.9,67.7,29.92,NW,315,0.0,0.0,96,0.00,CLR,,0.01,WeatherDisplay:10.37,2013-07-25 05:30:00,
2013-07-25 01:35:00,68.9,67.7,29.92,NW,315,0.0,0.0,96,0.00,CLR,,0.01,WeatherDisplay:10.37,2013-07-25 05:35:00,
2013-07-25 01:40:00,68.9,67.7,29.92,NW,315,0.0,0.0,96,0.00,CLR,,0.01,WeatherDisplay:10.37,2013-07-25 05:40:00,
2013-07-25 01:45:00,68.9,67.7,29.92,NW,315,0.0,0.0,96,0.00,CLR,,0.01,WeatherDisplay:10.37,2013-07-25 05:45:00,
2013-07-25 01:50:00,68.7,67.5,29.92,NW,315,0.0,0.0,96,0.00,CLR,,0.01,WeatherDisplay:10.37,2013-07-25 05:50:00,
2013-07-25 01:55:00,68.7,67.5,29.92,NW,315,0.0,0.0,96,0.00,CLR,,0.01,WeatherDisplay:10.37,2013-07-25 05:55:00,
2013-07-25 02:00:00,68.5,67.4,29.92,NW,315,0.0,0.0,96,0.00,CLR,,0.01,WeatherDisplay:10.37,2013-07-25 06:00:00,
2013-07-25 02:05:00,68.5,67.4,29.92,NW,315,0.0,0.0,96,0.00,CLR,,0.01,WeatherDisplay:10.37,2013-07-25 06:05:00,
2013-07-25 02:10:00,68.4,67.2,29.92,NW,315,0.0,0.0,96,0.00,CLR,,0.01,WeatherDisplay:10.37,2013-07-25 06:10:00,
2013-07-25 02:15:00,68.4,67.2,29.91,NW,315,0.0,0.0,96,0.00,CLR,,0.01,WeatherDisplay:10.37,2013-07-25 06:15:00,
2013-07-25 02:20:00,68.2,67.0,29.92,NW,315,0.0,0.0,96,0.00,CLR,,0.01,WeatherDisplay:10.37,2013-07-25 06:20:00,
2013-07-25 02:30:00,68.0,66.8,29.92,NW,315,0.0,0.0,96,0.00,CLR,,0.01,WeatherDisplay:10.37,2013-07-25 06:30:00,
2013-07-25 02:35:00,68.0,66.8,29.92,NW,315,0.0,0.0,96,0.00,CLR,,0.01,WeatherDisplay:10.37,2013-07-25 06:35:00,
2013-07-25 02:40:00,68.0,66.8,29.91,NW,315,0.0,0.0,96,0.00,CLR,,0.01,WeatherDisplay:10.37,2013-07-25 06:40:00,
2013-07-25 02:45:00,67.8,66.9,29.92,NW,315,0.0,0.0,97,0.00,CLR,,0.01,WeatherDisplay:10.37,2013-07-25 06:45:00,
2013-07-25 02:50:00,67.8,66.9,29.92,NW,315,0.0,0.0,97,0.00,CLR,,0.01,WeatherDisplay:10.37,2013-07-25 06:50:00,
2013-07-25 02:55:00,67.8,66.9,29.92,NW,315,0.0,0.0,97,0.00,CLR,,0.01,WeatherDisplay:10.37,2013-07-25 06:55:00,
2013-07-25 03:00:00,67.6,66.8,29.92,NW,315,0.0,0.0,97,0.00,CLR,,0.01,WeatherDisplay:10.37,2013-07-25 07:00:00,
2013-07-25 03:05:00,67.6,66.8,29.91,NW,315,0.0,0.0,97,0.00,CLR,,0.01,WeatherDisplay:10.37,2013-07-25 07:05:00,
2013-07-25 03:10:00,67.5,66.6,29.91,NW,315,0.0,0.0,97,0.00,CLR,,0.01,WeatherDisplay:10.37,2013-07-25 07:10:00,
2013-07-25 03:15:00,67.5,66.6,29.91,NW,315,0.0,0.0,97,0.00,CLR,,0.01,WeatherDisplay:10.37,2013-07-25 07:15:00,
2013-07-25 03:20:00,67.3,66.4,29.91,NW,315,0.0,0.0,97,0.00,CLR,,0.01,WeatherDisplay:10.37,2013-07-25 07:20:00,
2013-07-25 03:25:00,67.1,66.2,29.92,NW,315,0.0,0.0,97,0.00,CLR,,0.01,WeatherDisplay:10.37,2013-07-25 07:25:00,
2013-07-25 03:30:00,67.1,66.2,29.92,NW,315,0.0,0.0,97,0.00,CLR,,0.01,WeatherDisplay:10.37,2013-07-25 07:30:00,
2013-07-25 03:40:00,67.0,66.1,29.92,NW,315,0.0,0.0,97,0.00,CLR,,0.01,WeatherDisplay:10.37,2013-07-25 07:40:00,
2013-07-25 03:50:00,66.9,66.0,29.92,NW,315,0.0,0.0,97,0.00,CLR,,0.01,WeatherDisplay:10.37,2013-07-25 07:50:00,
2013-07-25 04:00:00,66.7,65.9,29.92,NW,315,0.0,0.0,97,0.00,CLR,,0.01,WeatherDisplay:10.37,2013-07-25 08:00:00,
2013-07-25 04:05:00,66.7,65.9,29.92,NW,315,0.0,0.0,97,0.00,CLR,,0.01,WeatherDisplay:10.37,2013-07-25 08:05:00,
2013-07-25 04:10:00,66.6,65.7,29.92,NW,315,0.0,0.0,97,0.00,CLR,,0.01,WeatherDisplay:10.37,2013-07-25 08:10:00,
2013-07-25 04:15:00,66.4,65.5,29.92,NW,315,0.0,0.0,97,0.00,CLR,,0.01,WeatherDisplay:10.37,2013-07-25 08:15:00,
2013-07-25 04:20:00,66.2,65.3,29.92,NW,315,0.0,0.0,97,0.00,CLR,,0.01,WeatherDisplay:10.37,2013-07-25 08:20:00,
2013-07-25 04:25:00,66.2,65.3,29.92,NW,315,0.0,0.0,97,0.00,CLR,,0.01,WeatherDisplay:10.37,2013-07-25 08:25:00,
2013-07-25 04:30:00,65.8,65.3,29.92,NW,315,0.0,0.0,98,0.00,CLR,,0.01,WeatherDisplay:10.37,2013-07-25 08:30:00,
2013-07-25 04:35:00,65.8,65.3,29.92,NW,315,0.0,0.0,98,0.00,CLR,,0.01,WeatherDisplay:10.37,2013-07-25 08:35:00,
2013-07-25 04:40:00,65.7,65.1,29.92,NW,315,0.0,0.0,98,0.00,CLR,,0.01,WeatherDisplay:10.37,2013-07-25 08:40:00,
2013-07-25 04:45:00,65.7,65.1,29.92,NW,315,0.0,0.0,98,0.00,CLR,,0.01,WeatherDisplay:10.37,2013-07-25 08:45:00,
2013-07-25 04:50:00,65.7,65.1,29.92,NW,315,0.0,0.0,98,0.00,CLR,,0.01,WeatherDisplay:10.37,2013-07-25 08:50:00,
2013-07-25 04:55:00,65.5,64.9,29.92,NW,315,0.0,0.0,98,0.00,CLR,,0.01,WeatherDisplay:10.37,2013-07-25 08:55:00,
2013-07-25 05:00:00,65.5,64.9,29.92,NW,315,0.0,0.0,98,0.00,CLR,,0.01,WeatherDisplay:10.37,2013-07-25 09:00:00,
2013-07-25 05:05:00,65.3,64.7,29.92,NW,315,0.0,0.0,98,0.00,CLR,,0.01,WeatherDisplay:10.37,2013-07-25 09:05:00,
2013-07-25 05:10:00,65.1,64.5,29.92,NW,315,0.0,0.0,98,0.00,CLR,,0.01,WeatherDisplay:10.37,2013-07-25 09:10:00,
2013-07-25 05:20:00,64.9,64.4,29.92,NW,315,0.0,0.0,98,0.00,CLR,,0.01,WeatherDisplay:10.37,2013-07-25 09:20:00,
2013-07-25 05:25:00,64.9,64.4,29.92,NW,315,0.0,0.0,98,0.00,CLR,,0.01,WeatherDisplay:10.37,2013-07-25 09:25:00,
2013-07-25 05:30:00,64.8,64.2,29.92,NW,315,0.0,0.0,98,0.00,CLR,,0.01,WeatherDisplay:10.37,2013-07-25 09:30:00,
2013-07-25 05:35:00,64.8,64.2,29.93,NW,315,0.0,0.0,98,0.00,CLR,,0.01,WeatherDisplay:10.37,2013-07-25 09:35:00,
2013-07-25 05:40:00,64.8,64.2,29.93,NW,315,0.0,0.0,98,0.00,CLR,,0.01,WeatherDisplay:10.37,2013-07-25 09:40:00,
2013-07-25 05:45:00,64.8,64.2,29.93,NW,315,0.0,0.0,98,0.00,CLR,,0.01,WeatherDisplay:10.37,2013-07-25 09:45:00,
2013-07-25 05:50:00,64.6,64.0,29.93,NW,315,0.0,0.0,98,0.00,CLR,,0.01,WeatherDisplay:10.37,2013-07-25 09:50:00,
2013-07-25 05:55:00,64.6,64.0,29.93,NW,315,0.0,0.0,98,0.00,CLR,,0.01,WeatherDisplay:10.37,2013-07-25 09:55:00,
2013-07-25 06:00:00,64.5,63.9,29.93,NW,315,0.0,0.0,98,0.00,CLR,,0.01,WeatherDisplay:10.37,2013-07-25 10:00:00,
2013-07-25 06:05:00,68.0,67.7,29.97,NW,315,0.0,1.0,99,0.00,CLR,,0.01,WeatherDisplay:10.37,2013-07-25 10:05:00,
2013-07-25 06:10:00,64.4,63.8,29.93,NW,315,0.0,0.0,98,0.00,CLR,,0.01,WeatherDisplay:10.37,2013-07-25 10:10:00,
2013-07-25 06:15:00,64.2,63.4,29.94,NW,315,0.0,0.0,97,0.00,CLR,,0.01,WeatherDisplay:10.37,2013-07-25 10:15:00,
2013-07-25 06:20:00,64.2,63.4,29.94,NW,315,0.0,0.0,97,0.00,CLR,,0.01,WeatherDisplay:10.37,2013-07-25 10:20:00,
2013-07-25 06:25:00,64.2,63.4,29.94,NW,315,0.0,0.0,97,0.00,CLR,,0.01,WeatherDisplay:10.37,2013-07-25 10:25:00,
2013-07-25 06:30:00,64.2,63.4,29.94,NW,315,0.0,0.0,97,0.00,CLR,,0.01,WeatherDisplay:10.37,2013-07-25 10:30:00,
2013-07-25 06:40:00,64.0,63.2,29.94,NW,315,0.0,0.0,97,0.00,CLR,,0.01,WeatherDisplay:10.37,2013-07-25 10:40:00,
2013-07-25 06:45:00,64.0,63.2,29.95,NW,315,0.0,0.0,97,0.00,CLR,,0.01,WeatherDisplay:10.37,2013-07-25 10:45:00,
2013-07-25 06:50:00,64.0,63.2,29.95,NW,315,0.0,0.0,97,0.00,CLR,,0.01,WeatherDisplay:10.37,2013-07-25 10:50:00,
2013-07-25 06:55:00,63.9,63.0,29.95,NW,315,0.0,0.0,97,0.00,CLR,,0.01,WeatherDisplay:10.37,2013-07-25 10:55:00,
2013-07-25 07:05:00,63.9,63.0,29.95,NW,315,0.0,0.0,97,0.00,CLR,,0.01,WeatherDisplay:10.37,2013-07-25 11:05:00,
2013-07-25 07:10:00,63.9,63.0,29.95,NW,315,0.0,0.0,97,0.00,CLR,,0.01,WeatherDisplay:10.37,2013-07-25 11:10:00,
2013-07-25 07:20:00,63.9,63.0,29.95,NW,315,0.0,0.0,97,0.00,CLR,,0.01,WeatherDisplay:10.37,2013-07-25 11:20:00,
2013-07-25 07:30:00,63.7,62.8,29.95,NW,315,0.0,0.0,97,0.00,CLR,,0.01,WeatherDisplay:10.37,2013-07-25 11:30:00,
2013-07-25 07:40:00,63.9,63.0,29.95,NW,315,0.0,0.0,97,0.00,CLR,,0.01,WeatherDisplay:10.37,2013-07-25 11:40:00,
2013-07-25 07:50:00,64.0,63.2,29.96,NW,315,0.0,0.0,97,0.00,CLR,,0.01,WeatherDisplay:10.37,2013-07-25 11:50:00,
2013-07-25 07:55:00,64.0,63.2,29.96,NW,315,0.0,0.0,97,0.00,CLR,,0.01,WeatherDisplay:10.37,2013-07-25 11:55:00,
2013-07-25 08:00:00,64.2,63.4,29.96,NW,315,0.0,0.0,97,0.00,CLR,,0.01,WeatherDisplay:10.37,2013-07-25 12:00:00,
2013-07-25 08:05:00,64.4,63.8,29.97,NW,315,0.0,0.0,98,0.00,CLR,,0.01,WeatherDisplay:10.37,2013-07-25 12:05:00,
2013-07-25 08:10:00,64.6,64.0,29.97,NW,315,0.0,0.0,98,0.00,CLR,,0.01,WeatherDisplay:10.37,2013-07-25 12:10:00,
2013-07-25 08:15:00,64.8,64.2,29.97,NW,315,0.0,0.0,98,0.00,CLR,,0.01,WeatherDisplay:10.37,2013-07-25 12:15:00,
2013-07-25 08:20:00,65.0,64.7,29.97,NW,315,0.0,0.0,99,0.00,CLR,,0.01,WeatherDisplay:10.37,2013-07-25 12:20:00,
2013-07-25 08:25:00,65.1,64.8,29.97,NW,315,0.0,0.0,99,0.00,CLR,,0.01,WeatherDisplay:10.37,2013-07-25 12:25:00,
2013-07-25 08:30:00,65.3,65.0,29.97,NW,315,0.0,0.0,99,0.00,CLR,,0.01,WeatherDisplay:10.37,2013-07-25 12:30:00,
2013-07-25 08:35:00,65.5,65.2,29.97,NW,315,0.0,0.0,99,0.00,CLR,,0.01,WeatherDisplay:10.37,2013-07-25 12:35:00,
2013-07-25 08:40:00,65.7,65.4,29.97,NW,315,0.0,0.0,99,0.00,CLR,,0.01,WeatherDisplay:10.37,2013-07-25 12:40:00,
2013-07-25 08:45:00,65.8,65.5,29.97,NW,315,0.0,0.0,99,0.00,CLR,,0.01,WeatherDisplay:10.37,2013-07-25 12:45:00,
2013-07-25 08:50:00,66.0,65.7,29.98,NW,315,0.0,0.0,99,0.00,CLR,,0.01,WeatherDisplay:10.37,2013-07-25 12:50:00,
2013-07-25 08:55:00,66.2,65.6,29.98,NW,315,0.0,0.0,98,0.00,CLR,,0.01,WeatherDisplay:10.37,2013-07-25 12:55:00,
2013-07-25 09:00:00,66.6,66.0,29.98,NW,315,0.0,0.0,98,0.00,CLR,,0.01,WeatherDisplay:10.37,2013-07-25 13:00:00,
2013-07-25 09:05:00,66.7,66.2,29.98,NW,315,0.0,0.0,98,0.00,CLR,,0.01,WeatherDisplay:10.37,2013-07-25 13:05:00,
2013-07-25 09:10:00,67.0,66.5,29.98,NW,315,0.0,0.0,98,0.00,CLR,,0.01,WeatherDisplay:10.37,2013-07-25 13:10:00,
2013-07-25 09:15:00,67.5,66.9,29.98,NW,315,0.0,0.0,98,0.00,CLR,,0.01,WeatherDisplay:10.37,2013-07-25 13:15:00,
2013-07-25 09:20:00,67.7,67.1,29.98,NW,315,0.0,0.0,98,0.00,CLR,,0.01,WeatherDisplay:10.37,2013-07-25 13:20:00,
2013-07-25 09:25:00,68.2,67.3,29.97,NW,315,0.0,0.0,97,0.00,CLR,,0.01,WeatherDisplay:10.37,2013-07-25 13:25:00,
2013-07-25 09:30:00,68.5,67.7,29.98,NW,315,0.0,0.0,97,0.00,CLR,,0.01,WeatherDisplay:10.37,2013-07-25 13:30:00,
2013-07-25 09:35:00,69.4,68.5,29.98,NW,315,0.0,0.0,97,0.00,CLR,,0.01,WeatherDisplay:10.37,2013-07-25 13:35:00,
2013-07-25 09:40:00,69.9,68.4,29.99,NW,315,0.0,0.0,95,0.00,CLR,,0.01,WeatherDisplay:10.37,2013-07-25 13:40:00,
2013-07-25 09:45:00,70.3,68.8,29.99,NW,315,0.0,0.0,95,0.00,CLR,,0.01,WeatherDisplay:10.37,2013-07-25 13:45:00,
2013-07-25 09:50:00,70.5,68.7,29.99,NW,315,0.0,0.0,94,0.00,CLR,,0.01,WeatherDisplay:10.37,2013-07-25 13:50:00,
2013-07-25 09:55:00,70.9,68.4,29.98,NW,315,0.0,0.0,92,0.00,CLR,,0.01,WeatherDisplay:10.37,2013-07-25 13:55:00,
2013-07-25 10:00:00,71.2,68.8,29.98,NW,315,0.0,0.0,92,0.00,CLR,,0.01,WeatherDisplay:10.37,2013-07-25 14:00:00,
2013-07-25 10:05:00,71.4,68.3,29.98,NW,315,0.0,0.0,90,0.00,CLR,,0.01,WeatherDisplay:10.37,2013-07-25 14:05:00,
2013-07-25 10:10:00,71.8,68.0,29.98,NW,315,0.0,0.0,88,0.00,CLR,,0.01,WeatherDisplay:10.37,2013-07-25 14:10:00,
2013-07-25 10:20:00,72.5,68.0,29.98,NW,315,0.0,0.0,86,0.00,CLR,,0.01,WeatherDisplay:10.37,2013-07-25 14:20:00,
2013-07-25 10:25:00,72.7,67.9,29.97,NW,315,0.0,0.0,85,0.00,CLR,,0.01,WeatherDisplay:10.37,2013-07-25 14:25:00,
2013-07-25 10:30:00,72.9,67.4,29.98,NW,315,0.0,0.0,83,0.00,CLR,,0.01,WeatherDisplay:10.37,2013-07-25 14:30:00,
2013-07-25 10:35:00,73.2,67.4,29.98,NW,315,0.0,0.0,82,0.00,CLR,,0.01,WeatherDisplay:10.37,2013-07-25 14:35:00,
2013-07-25 10:40:00,73.4,67.6,29.98,NW,315,0.0,0.0,82,0.00,CLR,,0.01,WeatherDisplay:10.37,2013-07-25 14:40:00,
2013-07-25 10:45:00,73.9,67.7,29.98,NW,315,0.0,0.0,81,0.00,CLR,,0.01,WeatherDisplay:10.37,2013-07-25 14:45:00,
2013-07-25 10:50:00,74.3,67.7,29.98,NW,315,0.0,0.0,80,0.00,CLR,,0.01,WeatherDisplay:10.37,2013-07-25 14:50:00,
2013-07-25 10:55:00,74.8,67.8,29.99,NW,315,0.0,0.0,79,0.00,CLR,,0.01,WeatherDisplay:10.37,2013-07-25 14:55:00,
2013-07-25 11:00:00,75.4,68.0,29.99,NW,315,0.0,0.0,78,0.00,CLR,,0.01,WeatherDisplay:10.37,2013-07-25 15:00:00,
2013-07-25 11:05:00,75.6,67.8,29.99,NW,315,0.0,0.0,77,0.00,CLR,,0.01,WeatherDisplay:10.37,2013-07-25 15:05:00,
2013-07-25 11:10:00,75.9,68.2,29.99,NW,315,0.0,0.0,77,0.00,CLR,,0.01,WeatherDisplay:10.37,2013-07-25 15:10:00,
2013-07-25 11:15:00,75.9,67.8,29.99,NW,315,0.0,0.0,76,0.00,CLR,,0.01,WeatherDisplay:10.37,2013-07-25 15:15:00,
2013-07-25 11:20:00,76.4,68.3,29.99,NW,315,0.0,0.0,76,0.00,CLR,,0.01,WeatherDisplay:10.37,2013-07-25 15:20:00,
2013-07-25 11:25:00,77.4,68.8,29.99,NW,315,0.0,0.0,75,0.00,CLR,,0.01,WeatherDisplay:10.37,2013-07-25 15:25:00,
2013-07-25 11:30:00,77.7,68.8,29.99,NW,315,0.0,0.0,74,0.00,CLR,,0.01,WeatherDisplay:10.37,2013-07-25 15:30:00,
2013-07-25 11:35:00,78.4,69.0,29.99,NW,315,0.0,0.0,73,0.00,CLR,,0.01,WeatherDisplay:10.37,2013-07-25 15:35:00,
2013-07-25 11:40:00,78.6,69.3,29.99,NW,315,0.0,0.0,73,0.00,CLR,,0.01,WeatherDisplay:10.37,2013-07-25 15:40:00,
2013-07-25 11:45:00,79.0,69.2,29.99,NW,315,0.0,0.0,72,0.00,CLR,,0.01,WeatherDisplay:10.37,2013-07-25 15:45:00,
2013-07-25 11:50:00,79.3,69.9,29.99,NW,315,0.0,0.0,73,0.00,CLR,,0.01,WeatherDisplay:10.37,2013-07-25 15:50:00,
2013-07-25 11:55:00,79.7,69.0,29.99,NW,315,0.0,0.0,70,0.00,CLR,,0.01,WeatherDisplay:10.37,2013-07-25 15:55:00,
2013-07-25 12:00:00,80.3,69.6,29.99,NW,315,0.0,0.0,70,0.00,CLR,,0.01,WeatherDisplay:10.37,2013-07-25 16:00:00,
2013-07-25 12:05:00,81.0,69.4,29.99,NW,315,0.0,0.0,68,0.00,CLR,,0.01,WeatherDisplay:10.37,2013-07-25 16:05:00,
2013-07-25 12:10:00,81.0,69.0,29.99,NW,315,0.0,0.0,67,0.00,CLR,,0.01,WeatherDisplay:10.37,2013-07-25 16:10:00,
2013-07-25 12:15:00,81.0,68.5,29.99,NW,315,0.0,0.0,66,0.00,CLR,,0.01,WeatherDisplay:10.37,2013-07-25 16:15:00,
2013-07-25 12:20:00,80.3,68.3,29.99,NW,315,0.0,0.0,67,0.00,CLR,,0.01,WeatherDisplay:10.37,2013-07-25 16:20:00,
2013-07-25 12:25:00,79.7,68.2,29.99,NW,315,0.0,0.0,68,0.00,CLR,,0.01,WeatherDisplay:10.37,2013-07-25 16:25:00,
2013-07-25 12:30:00,80.0,68.5,29.99,NW,315,0.0,0.0,68,0.00,CLR,,0.01,WeatherDisplay:10.37,2013-07-25 16:30:00,
2013-07-25 12:35:00,80.9,68.4,29.99,NW,315,0.0,0.0,66,0.00,CLR,,0.01,WeatherDisplay:10.37,2013-07-25 16:35:00,
2013-07-25 12:40:00,81.5,69.5,29.99,NW,315,0.0,0.0,67,0.00,CLR,,0.01,WeatherDisplay:10.37,2013-07-25 16:40:00,
2013-07-25 12:45:00,82.0,69.6,29.99,NW,315,0.0,0.0,66,0.00,CLR,,0.01,WeatherDisplay:10.37,2013-07-25 16:45:00,
2013-07-25 12:50:00,81.7,68.8,30.00,NW,315,0.0,0.0,65,0.00,CLR,,0.01,WeatherDisplay:10.37,2013-07-25 16:50:00,
2013-07-25 13:00:00,82.0,69.6,29.99,NW,315,0.0,0.0,66,0.00,CLR,,0.01,WeatherDisplay:10.37,2013-07-25 17:00:00,
2013-07-25 13:05:00,81.3,68.9,29.99,NW,315,0.0,0.0,66,0.00,CLR,,0.01,WeatherDisplay:10.37,2013-07-25 17:05:00,
2013-07-25 13:10:00,81.8,69.7,29.99,NW,315,0.0,0.0,67,0.00,CLR,,0.01,WeatherDisplay:10.37,2013-07-25 17:10:00,
2013-07-25 13:15:00,82.6,70.1,29.99,NW,315,0.0,0.0,66,0.00,CLR,,0.01,WeatherDisplay:10.37,2013-07-25 17:15:00,
2013-07-25 13:20:00,82.5,69.6,29.99,NW,315,0.0,0.0,65,0.00,CLR,,0.01,WeatherDisplay:10.37,2013-07-25 17:20:00,
2013-07-25 13:25:00,82.8,69.8,29.99,NW,315,0.0,0.0,65,0.00,CLR,,0.01,WeatherDisplay:10.37,2013-07-25 17:25:00,
2013-07-25 13:30:00,83.3,69.4,29.99,NW,315,0.0,0.0,63,0.00,CLR,,0.01,WeatherDisplay:10.37,2013-07-25 17:30:00,
2013-07-25 13:40:00,83.3,68.4,29.99,NW,312,0.0,0.0,61,0.00,CLR,,0.01,WeatherDisplay:10.37,2013-07-25 17:40:00,
2013-07-25 13:45:00,83.0,68.2,29.99,NW,312,0.0,0.0,61,0.00,CLR,,0.01,WeatherDisplay:10.37,2013-07-25 17:45:00,
2013-07-25 13:50:00,82.9,68.6,29.99,NW,315,0.0,0.0,62,0.00,CLR,,0.01,WeatherDisplay:10.37,2013-07-25 17:50:00,
2013-07-25 13:55:00,82.9,68.6,29.99,NW,312,0.0,0.0,62,0.00,CLR,,0.01,WeatherDisplay:10.37,2013-07-25 17:55:00,
2013-07-25 14:00:00,83.5,68.1,29.99,NW,312,0.0,0.0,60,0.00,CLR,,0.01,WeatherDisplay:10.37,2013-07-25 18:00:00,
2013-07-25 14:05:00,84.3,70.4,29.98,NW,315,0.0,0.0,63,0.00,CLR,,0.01,WeatherDisplay:10.37,2013-07-25 18:05:00,
2013-07-25 14:10:00,83.7,68.8,29.99,NW,315,0.0,0.0,61,0.00,CLR,,0.01,WeatherDisplay:10.37,2013-07-25 18:10:00,
2013-07-25 14:15:00,83.7,69.3,29.98,NW,315,0.0,0.0,62,0.00,CLR,,0.01,WeatherDisplay:10.37,2013-07-25 18:15:00,
2013-07-25 14:20:00,83.7,69.3,29.98,NW,312,0.0,0.0,62,0.00,CLR,,0.01,WeatherDisplay:10.37,2013-07-25 18:20:00,
2013-07-25 14:30:00,84.3,69.9,29.99,NW,313,0.0,0.0,62,0.00,CLR,,0.01,WeatherDisplay:10.37,2013-07-25 18:30:00,
2013-07-25 14:35:00,84.6,69.1,29.98,NW,309,0.0,0.0,60,0.00,CLR,,0.01,WeatherDisplay:10.37,2013-07-25 18:35:00,
2013-07-25 14:45:00,84.8,69.9,29.99,NW,315,0.0,0.0,61,0.00,CLR,,0.01,WeatherDisplay:10.37,2013-07-25 18:45:00,
2013-07-25 14:50:00,84.7,68.8,29.99,WNW,303,0.0,0.0,59,0.00,CLR,,0.01,WeatherDisplay:10.37,2013-07-25 18:50:00,
2013-07-25 14:55:00,84.4,68.5,29.99,NW,307,0.0,0.0,59,0.00,CLR,,0.01,WeatherDisplay:10.37,2013-07-25 18:55:00,
2013-07-25 15:00:00,84.2,68.8,29.99,NW,315,0.0,0.0,60,0.00,CLR,,0.01,WeatherDisplay:10.37,2013-07-25 19:00:00,
2013-07-25 15:05:00,84.6,69.2,29.99,NW,314,0.0,0.0,60,0.00,CLR,,0.01,WeatherDisplay:10.37,2013-07-25 19:05:00,
2013-07-25 15:10:00,85.2,69.3,29.99,NW,313,0.0,0.0,59,0.00,CLR,,0.01,WeatherDisplay:10.37,2013-07-25 19:10:00,
2013-07-25 15:20:00,85.5,69.5,29.99,NW,315,0.0,0.0,59,0.00,CLR,,0.01,WeatherDisplay:10.37,2013-07-25 19:20:00,
2013-07-25 15:25:00,85.5,70.0,29.99,NW,310,0.0,0.0,60,0.00,CLR,,0.01,WeatherDisplay:10.37,2013-07-25 19:25:00,
2013-07-25 15:30:00,85.6,68.7,29.99,NW,312,0.0,0.0,57,0.00,CLR,,0.01,WeatherDisplay:10.37,2013-07-25 19:30:00,
2013-07-25 15:35:00,85.7,69.7,30.00,NW,315,0.0,0.0,59,0.00,CLR,,0.01,WeatherDisplay:10.37,2013-07-25 19:35:00,
2013-07-25 15:40:00,85.8,69.3,30.00,NW,315,0.0,0.0,58,0.00,CLR,,0.01,WeatherDisplay:10.37,2013-07-25 19:40:00,
2013-07-25 15:45:00,86.0,69.0,30.00,NW,315,0.0,0.0,57,0.00,CLR,,0.01,WeatherDisplay:10.37,2013-07-25 19:45:00,
2013-07-25 15:50:00,86.4,69.3,30.00,NW,315,0.0,0.0,57,0.00,CLR,,0.01,WeatherDisplay:10.37,2013-07-25 19:50:00,
2013-07-25 15:55:00,86.2,68.6,30.00,NW,315,0.0,0.0,56,0.00,CLR,,0.01,WeatherDisplay:10.37,2013-07-25 19:55:00,
2013-07-25 16:00:00,86.2,69.7,30.00,NW,315,0.0,0.0,58,0.00,CLR,,0.01,WeatherDisplay:10.37,2013-07-25 20:00:00,
2013-07-25 16:05:00,86.0,69.0,30.00,NW,315,0.0,0.0,57,0.00,CLR,,0.01,WeatherDisplay:10.37,2013-07-25 20:05:00,
2013-07-25 16:10:00,86.2,69.7,29.99,NW,315,0.0,0.0,58,0.00,CLR,,0.01,WeatherDisplay:10.37,2013-07-25 20:10:00,
2013-07-25 16:15:00,86.0,70.0,30.00,NW,314,0.0,0.0,59,0.00,CLR,,0.01,WeatherDisplay:10.37,2013-07-25 20:15:00,
2013-07-25 16:20:00,86.2,69.7,29.99,NW,313,0.0,0.0,58,0.00,CLR,,0.01,WeatherDisplay:10.37,2013-07-25 20:20:00,
2013-07-25 16:25:00,86.4,70.3,29.99,NW,315,0.0,0.0,59,0.00,CLR,,0.01,WeatherDisplay:10.37,2013-07-25 20:25:00,
2013-07-25 16:30:00,86.3,70.3,29.99,NW,312,0.0,0.0,59,0.00,CLR,,0.01,WeatherDisplay:10.37,2013-07-25 20:30:00,
2013-07-25 16:40:00,85.8,69.3,29.99,NW,310,0.0,0.0,58,0.00,CLR,,0.01,WeatherDisplay:10.37,2013-07-25 20:40:00,
2013-07-25 16:45:00,86.0,70.0,29.99,NW,312,0.0,0.0,59,0.00,CLR,,0.01,WeatherDisplay:10.37,2013-07-25 20:45:00,
2013-07-25 16:50:00,86.2,69.7,29.99,NW,313,0.0,0.0,58,0.00,CLR,,0.01,WeatherDisplay:10.37,2013-07-25 20:50:00,
2013-07-25 16:55:00,86.7,70.1,29.99,NW,315,0.0,0.0,58,0.00,CLR,,0.01,WeatherDisplay:10.37,2013-07-25 20:55:00,
2013-07-25 17:00:00,86.9,70.3,29.99,NW,312,0.0,0.0,58,0.00,CLR,,0.01,WeatherDisplay:10.37,2013-07-25 21:00:00,
2013-07-25 17:10:00,86.4,70.3,29.98,NW,315,0.0,0.0,59,0.00,CLR,,0.01,WeatherDisplay:10.37,2013-07-25 21:10:00,
2013-07-25 17:15:00,86.0,70.5,29.98,NW,315,0.0,0.0,60,0.00,CLR,,0.01,WeatherDisplay:10.37,2013-07-25 21:15:00,
2013-07-25 17:20:00,86.0,69.5,29.98,NW,315,0.0,0.0,58,0.00,CLR,,0.01,WeatherDisplay:10.37,2013-07-25 21:20:00,
2013-07-25 17:30:00,85.6,69.7,29.98,NW,315,0.0,0.0,59,0.00,CLR,,0.01,WeatherDisplay:10.37,2013-07-25 21:30:00,
2013-07-25 17:40:00,84.9,70.0,29.99,NW,315,0.0,0.0,61,0.00,CLR,,0.01,WeatherDisplay:10.37,2013-07-25 21:40:00,
2013-07-25 17:45:00,84.1,70.1,29.98,NW,315,0.0,0.0,63,0.00,CLR,,0.01,WeatherDisplay:10.37,2013-07-25 21:45:00,
2013-07-25 17:50:00,83.4,69.5,29.98,NW,315,0.0,0.0,63,0.00,CLR,,0.01,WeatherDisplay:10.37,2013-07-25 21:50:00,
2013-07-25 17:55:00,83.1,69.7,29.98,NW,315,0.0,0.0,64,0.00,CLR,,0.01,WeatherDisplay:10.37,2013-07-25 21:55:00,
2013-07-25 18:00:00,82.9,69.5,29.98,NW,315,0.0,0.0,64,0.00,CLR,,0.01,WeatherDisplay:10.37,2013-07-25 22:00:00,
2013-07-25 18:05:00,82.7,69.8,29.98,NW,315,0.0,0.0,65,0.00,CLR,,0.01,WeatherDisplay:10.37,2013-07-25 22:05:00,
2013-07-25 18:10:00,82.4,69.4,29.98,NW,315,0.0,0.0,65,0.00,CLR,,0.01,WeatherDisplay:10.37,2013-07-25 22:10:00,
2013-07-25 18:15:00,82.0,69.6,29.99,NW,315,0.0,0.0,66,0.00,CLR,,0.01,WeatherDisplay:10.37,2013-07-25 22:15:00,
2013-07-25 18:20:00,81.9,69.4,29.98,NW,315,0.0,0.0,66,0.00,CLR,,0.01,WeatherDisplay:10.37,2013-07-25 22:20:00,
2013-07-25 18:25:00,81.5,69.0,29.99,NW,315,0.0,0.0,66,0.00,CLR,,0.01,WeatherDisplay:10.37,2013-07-25 22:25:00,
2013-07-25 18:30:00,81.2,68.7,29.98,NW,315,0.0,0.0,66,0.00,CLR,,0.01,WeatherDisplay:10.37,2013-07-25 22:30:00,
2013-07-25 18:40:00,80.8,68.8,29.98,NW,315,0.0,0.0,67,0.00,CLR,,0.01,WeatherDisplay:10.37,2013-07-25 22:40:00,
2013-07-25 18:45:00,80.6,68.6,29.98,NW,315,0.0,0.0,67,0.00,CLR,,0.01,WeatherDisplay:10.37,2013-07-25 22:45:00,
2013-07-25 18:50:00,80.4,68.9,29.98,NW,315,0.0,0.0,68,0.00,CLR,,0.01,WeatherDisplay:10.37,2013-07-25 22:50:00,
2013-07-25 18:55:00,80.3,68.7,29.99,NW,315,0.0,0.0,68,0.00,CLR,,0.01,WeatherDisplay:10.37,2013-07-25 22:55:00,
2013-07-25 19:00:00,80.1,68.6,29.99,NW,315,0.0,0.0,68,0.00,CLR,,0.01,WeatherDisplay:10.37,2013-07-25 23:00:00,
2013-07-25 19:05:00,79.9,68.8,29.98,NW,315,0.0,0.0,69,0.00,CLR,,0.01,WeatherDisplay:10.37,2013-07-25 23:05:00,
2013-07-25 19:10:00,79.6,68.6,29.99,NW,315,0.0,0.0,69,0.00,CLR,,0.01,WeatherDisplay:10.37,2013-07-25 23:10:00,
2013-07-25 19:15:00,79.5,68.5,29.99,NW,315,0.0,0.0,69,0.00,CLR,,0.01,WeatherDisplay:10.37,2013-07-25 23:15:00,
2013-07-25 19:20:00,79.5,68.5,29.99,NW,315,0.0,0.0,69,0.00,CLR,,0.01,WeatherDisplay:10.37,2013-07-25 23:20:00,
2013-07-25 19:25:00,79.4,69.2,30.00,NW,315,0.0,0.0,71,0.00,CLR,,0.01,WeatherDisplay:10.37,2013-07-25 23:25:00,
2013-07-25 19:30:00,79.3,69.5,29.99,NW,315,0.0,0.0,72,0.00,CLR,,0.01,WeatherDisplay:10.37,2013-07-25 23:30:00,
2013-07-25 19:35:00,79.3,69.5,30.00,NW,315,0.0,0.0,72,0.00,CLR,,0.01,WeatherDisplay:10.37,2013-07-25 23:35:00,
2013-07-25 19:45:00,79.0,69.2,30.00,NW,315,0.0,0.0,72,0.00,CLR,,0.01,WeatherDisplay:10.37,2013-07-25 23:45:00,
2013-07-25 19:50:00,78.8,68.6,30.00,NW,315,0.0,0.0,71,0.00,CLR,,0.01,WeatherDisplay:10.37,2013-07-25 23:50:00,
2013-07-25 20:00:00,78.3,69.3,30.00,NW,315,0.0,0.0,74,0.00,CLR,,0.01,WeatherDisplay:10.37,2013-07-26 00:00:00,
2013-07-25 20:05:00,78.1,69.1,30.00,NW,315,0.0,0.0,74,0.00,CLR,,0.01,WeatherDisplay:10.37,2013-07-26 00:05:00,
2013-07-25 20:10:00,77.8,68.9,30.00,NW,315,0.0,0.0,74,0.00,CLR,,0.01,WeatherDisplay:10.37,2013-07-26 00:10:00,
2013-07-25 20:20:00,77.2,68.3,30.00,NW,315,0.0,0.0,74,0.00,CLR,,0.01,WeatherDisplay:10.37,2013-07-26 00:20:00,
2013-07-25 20:25:00,77.0,68.5,30.01,NW,315,0.0,0.0,75,0.00,CLR,,0.01,WeatherDisplay:10.37,2013-07-26 00:25:00,
2013-07-25 20:30:00,76.6,68.8,30.01,NW,315,0.0,0.0,77,0.00,CLR,,0.01,WeatherDisplay:10.37,2013-07-26 00:30:00,
2013-07-25 20:35:00,76.1,68.4,30.01,NW,315,0.0,0.0,77,0.00,CLR,,0.01,WeatherDisplay:10.37,2013-07-26 00:35:00,
2013-07-25 20:40:00,75.7,68.4,30.01,NW,315,0.0,0.0,78,0.00,CLR,,0.01,WeatherDisplay:10.37,2013-07-26 00:40:00,
2013-07-25 20:45:00,75.6,68.2,30.01,NW,315,0.0,0.0,78,0.00,CLR,,0.01,WeatherDisplay:10.37,2013-07-26 00:45:00,
2013-07-25 20:50:00,75.4,67.7,30.01,NW,315,0.0,0.0,77,0.00,CLR,,0.01,WeatherDisplay:10.37,2013-07-26 00:50:00,
2013-07-25 20:55:00,75.2,67.8,30.01,NW,315,0.0,0.0,78,0.00,CLR,,0.01,WeatherDisplay:10.37,2013-07-26 00:55:00,
2013-07-25 21:05:00,74.7,67.3,30.01,NW,315,0.0,0.0,78,0.00,CLR,,0.01,WeatherDisplay:10.37,2013-07-26 01:05:00,
2013-07-25 21:10:00,74.5,67.5,30.01,NW,315,0.0,0.0,79,0.00,CLR,,0.01,WeatherDisplay:10.37,2013-07-26 01:10:00,
2013-07-25 21:15:00,74.1,67.6,30.01,NW,315,0.0,0.0,80,0.00,CLR,,0.01,WeatherDisplay:10.37,2013-07-26 01:15:00,
2013-07-25 21:20:00,73.9,67.3,30.01,NW,315,0.0,0.0,80,0.00,CLR,,0.01,WeatherDisplay:10.37,2013-07-26 01:20:00,
2013-07-25 21:25:00,73.6,67.0,30.01,NW,315,0.0,0.0,80,0.00,CLR,,0.01,WeatherDisplay:10.37,2013-07-26 01:25:00,
2013-07-25 21:30:00,73.4,66.9,30.02,NW,315,0.0,0.0,80,0.00,CLR,,0.01,WeatherDisplay:10.37,2013-07-26 01:30:00,
2013-07-25 21:35:00,73.2,66.7,30.02,NW,315,0.0,0.0,80,0.00,CLR,,0.01,WeatherDisplay:10.37,2013-07-26 01:35:00,
2013-07-25 21:40:00,72.9,66.7,30.02,NW,315,0.0,0.0,81,0.00,CLR,,0.01,WeatherDisplay:10.37,2013-07-26 01:40:00,
2013-07-25 21:45:00,72.7,66.5,30.02,NW,315,0.0,0.0,81,0.00,CLR,,0.01,WeatherDisplay:10.37,2013-07-26 01:45:00,
2013-07-25 21:50:00,72.5,66.3,30.03,NW,315,0.0,0.0,81,0.00,CLR,,0.01,WeatherDisplay:10.37,2013-07-26 01:50:00,
2013-07-25 21:55:00,72.2,66.0,30.03,NW,315,0.0,0.0,81,0.00,CLR,,0.01,WeatherDisplay:10.37,2013-07-26 01:55:00,
2013-07-25 22:00:00,72.1,66.0,30.03,NW,315,0.0,0.0,81,0.00,CLR,,0.01,WeatherDisplay:10.37,2013-07-26 02:00:00,
2013-07-25 22:05:00,72.1,66.3,30.03,NW,315,0.0,0.0,82,0.00,CLR,,0.01,WeatherDisplay:10.37,2013-07-26 02:05:00,
2013-07-25 22:10:00,72.0,65.8,30.03,NW,315,0.0,0.0,81,0.00,CLR,,0.01,WeatherDisplay:10.37,2013-07-26 02:10:00,
2013-07-25 22:20:00,71.6,65.5,30.03,NW,315,0.0,0.0,81,0.00,CLR,,0.01,WeatherDisplay:10.37,2013-07-26 02:20:00,
2013-07-25 22:25:00,71.4,65.6,30.04,NW,315,0.0,0.0,82,0.00,CLR,,0.01,WeatherDisplay:10.37,2013-07-26 02:25:00,
2013-07-25 22:30:00,71.2,65.8,30.04,NW,315,0.0,0.0,83,0.00,CLR,,0.01,WeatherDisplay:10.37,2013-07-26 02:30:00,
2013-07-25 22:35:00,71.1,65.6,30.04,NW,315,0.0,0.0,83,0.00,CLR,,0.01,WeatherDisplay:10.37,2013-07-26 02:35:00,
2013-07-25 22:40:00,70.9,65.5,30.04,NW,315,0.0,0.0,83,0.00,CLR,,0.01,WeatherDisplay:10.37,2013-07-26 02:40:00,
2013-07-25 22:45:00,70.7,65.3,30.04,NW,315,0.0,0.0,83,0.00,CLR,,0.01,WeatherDisplay:10.37,2013-07-26 02:45:00,
2013-07-25 22:50:00,70.5,65.4,30.04,NW,315,0.0,0.0,84,0.00,CLR,,0.01,WeatherDisplay:10.37,2013-07-26 02:50:00,
2013-07-25 22:55:00,70.5,65.4,30.04,NW,315,0.0,0.0,84,0.00,CLR,,0.01,WeatherDisplay:10.37,2013-07-26 02:55:00,
2013-07-25 23:00:00,70.3,65.3,30.04,NW,315,0.0,0.0,84,0.00,CLR,,0.01,WeatherDisplay:10.37,2013-07-26 03:00:00,
2013-07-25 23:05:00,70.3,65.3,30.04,NW,315,0.0,0.0,84,0.00,CLR,,0.01,WeatherDisplay:10.37,2013-07-26 03:05:00,
2013-07-25 23:10:00,70.3,64.9,30.05,NW,315,0.0,0.0,83,0.00,CLR,,0.01,WeatherDisplay:10.37,2013-07-26 03:10:00,
2013-07-25 23:20:00,70.1,64.7,30.05,NW,315,0.0,0.0,83,0.00,CLR,,0.01,WeatherDisplay:10.37,2013-07-26 03:20:00,
2013-07-25 23:25:00,70.0,64.6,30.05,NW,315,0.0,0.0,83,0.00,CLR,,0.01,WeatherDisplay:10.37,2013-07-26 03:25:00,
2013-07-25 23:30:00,69.7,64.3,30.05,NW,315,0.0,0.0,83,0.00,CLR,,0.01,WeatherDisplay:10.37,2013-07-26 03:30:00,
2013-07-25 23:35:00,69.6,64.6,30.05,NW,315,0.0,0.0,84,0.00,CLR,,0.01,WeatherDisplay:10.37,2013-07-26 03:35:00,
2013-07-25 23:40:00,69.4,64.7,30.05,NW,315,0.0,0.0,85,0.00,CLR,,0.01,WeatherDisplay:10.37,2013-07-26 03:40:00,
2013-07-25 23:45:00,69.2,64.5,30.05,NW,315,0.0,0.0,85,0.00,CLR,,0.01,WeatherDisplay:10.37,2013-07-26 03:45:00,
2013-07-25 23:50:00,69.1,64.4,30.05,NW,315,0.0,0.0,85,0.00,CLR,,0.01,WeatherDisplay:10.37,2013-07-26 03:50:00,
2013-07-25 23:55:00,69.0,64.7,30.05,NW,315,0.0,0.0,86,0.00,CLR,,0.01,WeatherDisplay:10.37,2013-07-26 03:55:00,